Weather History for Campo, CA

Change the Weather History Date:

Wednesday, January 29, 2014

  Actual Average Record
Temperature  
Mean Temperature 58 °F 49 °F  
Max Temperature 79 °F 63 °F 79 °F (1953)
Min Temperature 36 °F 35 °F 10 °F (1979)
Degree Days  
Heating Degree Days 7 16  
Month to date heating degree days 333 475  
Since 1 July heating degree days 1456 1581  
Cooling Degree Days 0 0  
Month to date cooling degree days 0 0  
Year to date cooling degree days 0 0  
Growing Degree Days 8 (Base 50)    
Moisture  
Dew Point 23 °F    
Average Humidity 29    
Maximum Humidity 48    
Minimum Humidity 10    
Precipitation  
Precipitation 0.00 in 0.09 in 3.12 in (1980)
Month to date precipitation 0.00 2.78  
Year to date precipitation 0.00 2.78  
Since 1 July precipitation 4.19 8.36  
Snow  
Snow 0.00 in - - ()
Month to date snowfall 0.0  
Year to date snowfall 0.0  
Since 1 July snowfall 0.0  
Snow Depth 0.00 in    
Sea Level Pressure  
Sea Level Pressure 29.97 in    
Wind  
Wind Speed 5 mph (NE)    
Max Wind Speed 17 mph    
Max Gust Speed 21 mph    
T = Trace of Precipitation, MM = Missing Value Source: NWS Daily Summary

Daily Weather History Graph

Daily Weather History Graph

Search for Another Location

Airport:

Trip Planner

Search our weather history database for the weather conditions in past years. The results will help you decide how hot, cold, wet, or windy it might be!

Date:

Astronomy

Jan. 29, 2014 Rise Set
Actual Time 6:42 AM PST 5:16 PM PST
Civil Twilight 6:16 AM PST 5:42 PM PST
Nautical Twilight 5:46 AM PST 6:11 PM PST
Astronomical Twilight 5:17 AM PST 6:40 PM PST
Moon 5:22 AM PST (1/29) 4:20 PM PST (1/29)
Length of Visible Light 11h 25m
Length of Day
10h 33m
Waning Crescent, 2% of the Moon is Illuminated
Jan 29
Waning Crescent
Jan 30
New
Feb 6
First Quarter
Feb 14
Full
Feb 22
Last Quarter

Hourly Weather History & Observations

Time (PST) Temp. Windchill Dew Point Humidity Pressure Visibility Wind Dir Wind Speed Gust Speed Precip Events Conditions
12:52 AM 39.9 °F 35.8 °F 19.0 °F 43% 30.04 in - NE 5.8 mph - N/A   Unknown
1:52 AM 41.0 °F 36.4 °F 19.0 °F 41% 30.03 in - NE 6.9 mph - N/A   Unknown
2:52 AM 39.9 °F 37.8 °F 19.0 °F 43% 30.02 in - NE 3.5 mph - N/A   Unknown
3:52 AM 39.0 °F 35.7 °F 19.0 °F 45% 30.02 in - NE 4.6 mph - N/A   Unknown
4:52 AM 41.0 °F - 19.9 °F 43% 30.02 in - Calm Calm - N/A   Unknown
5:52 AM 39.9 °F 37.8 °F 21.0 °F 47% 30.02 in - NE 3.5 mph - N/A   Unknown
6:52 AM 42.1 °F 38.4 °F 19.9 °F 41% 30.04 in - NNE 5.8 mph - N/A   Unknown
7:52 AM 52.0 °F - 23.0 °F 32% 30.04 in - Calm Calm - N/A   Unknown
8:52 AM 64.0 °F - 26.1 °F 24% 30.02 in - Calm Calm - N/A   Unknown
9:52 AM 73.0 °F - 21.9 °F 15% 30.01 in - Variable 3.5 mph - N/A   Unknown
10:52 AM 75.9 °F - 23.0 °F 14% 30.00 in - Calm Calm - N/A   Unknown
11:52 AM 77.0 °F - 21.9 °F 13% 29.96 in - Variable 6.9 mph - N/A   Unknown
12:52 PM 78.1 °F - 19.9 °F 11% 29.92 in - SSW 16.1 mph - N/A   Unknown
1:52 PM 78.1 °F - 18.0 °F 10% 29.91 in - Variable 5.8 mph - N/A   Unknown
2:52 PM 77.0 °F - 26.1 °F 15% 29.90 in - SW 13.8 mph 19.6 mph N/A   Unknown
3:52 PM 73.0 °F - 28.0 °F 19% 29.91 in - SW 15.0 mph - N/A   Unknown
4:52 PM 69.1 °F - 28.0 °F 22% 29.92 in - SSW 11.5 mph - N/A   Unknown
5:52 PM 62.1 °F - 27.0 °F 26% 29.94 in - SSW 3.5 mph - N/A   Unknown
6:52 PM 51.1 °F - 26.1 °F 38% 29.96 in - NNE 5.8 mph - N/A   Unknown
7:52 PM 48.0 °F - 26.1 °F 42% 29.95 in - NE 5.8 mph - N/A   Unknown
8:52 PM 46.0 °F 42.5 °F 26.1 °F 46% 29.94 in - NE 6.9 mph - N/A   Unknown
9:52 PM 44.1 °F 40.1 °F 26.1 °F 49% 29.94 in - ENE 6.9 mph - N/A   Unknown
10:52 PM 44.1 °F 40.8 °F 26.1 °F 49% 29.92 in - NE 5.8 mph - N/A   Unknown
11:52 PM 39.0 °F 34.8 °F 24.1 °F 55% 29.92 in - NE 5.8 mph - N/A   Unknown